DW0809 Weather Reports


Display with metric or nautical units.
time (UTC)temp
F
wind
direction
speed
MPH
gust
MPH
rain 1hr
in
rain 24hr
in
rain mn
in
humidity
%
barometer
mb
20260906175557 88 158 2.0 8.0 0.00 0.00 0.00 69 1016.8
20260906174517 88 158 2.0 5.0 0.00 0.00 0.00 69 1016.9
20260906173516 88 158 2.0 5.0 0.00 0.00 0.00 72 1017.0
20260906172517 87 113 2.0 5.0 0.00 0.00 0.00 73 1017.1
20260906171516 87 158 2.0 4.0 0.00 0.00 0.00 74 1017.3
20260906170517 87 90 1.0 4.0 0.00 0.00 0.00 75 1017.4
20260906165516 86 113 2.0 4.0 0.00 0.00 0.00 76 1017.4
20260906164536 86 113 2.0 6.0 0.00 0.00 0.00 79 1017.6
20260906163516 85 113 1.0 3.0 0.00 0.00 0.00 81 1017.6
20260906162516 83 135 1.0 3.0 0.00 0.00 0.00 81 1017.8
20260906161517 83 158 1.0 3.0 0.00 0.00 0.00 82 1017.9
20260906160517 83 0.0 0.0 0.00 0.00 0.00 84 1017.9
20260906155516 82 0.0 0.0 0.00 0.00 0.00 84 1018.1
20260906154516 82 270 2.0 4.0 0.00 0.00 0.00 84 1018.3
20260906153516 82 270 3.0 6.0 0.00 0.00 0.00 84 1018.2
20260906152516 82 113 1.0 2.0 0.00 0.00 0.00 84 1017.5
20260906151516 82 113 1.0 2.0 0.00 0.00 0.00 85 1017.5
20260906150516 82 113 1.0 3.0 0.00 0.00 0.00 85 1017.5
20260906145536 82 113 1.0 4.0 0.00 0.00 0.00 86 1017.5
20260906144516 82 113 2.0 4.0 0.00 0.00 0.00 85 1017.3
20260906143556 82 113 2.0 5.0 0.00 0.00 0.00 85 1017.3
20260906142536 81 113 1.0 5.0 0.00 0.00 0.00 86 1017.4
20260906141536 81 113 1.0 3.0 0.00 0.00 0.00 86 1017.5
20260906140536 81 113 1.0 3.0 0.00 0.00 0.00 86 1017.6
20260906135516 81 113 1.0 3.0 0.00 0.00 0.00 86 1017.7
20260906134536 81 113 1.0 4.0 0.00 0.00 0.00 86 1017.7
20260906133516 81 113 1.0 4.0 0.00 0.00 0.00 87 1017.7
20260906132516 80 113 1.0 7.0 0.00 0.00 0.00 90 1017.6
20260906131516 79 113 1.0 5.0 0.00 0.00 0.00 91 1017.5
20260906130516 78 158 1.0 2.0 0.00 0.00 0.00 92 1017.7
20260906125516 77 113 1.0 2.0 0.00 0.00 0.00 92 1017.5
20260906124516 77 0.0 2.0 0.00 0.00 0.00 92 1017.3
20260906123516 77 90 1.0 2.0 0.00 0.00 0.00 92 1017.3
20260906122516 76 0.0 2.0 0.00 0.00 0.00 92 1017.1
20260906121536 76 135 1.0 2.0 0.00 0.00 0.00 92 1017.0
20260906120536 76 0.0 1.0 0.00 0.00 0.00 91 1017.1
20260906115518 76 0.0 1.0 0.00 0.00 0.00 91 1016.9
20260906114537 77 0.0 2.0 0.00 0.00 0.00 91 1016.6
20260906113517 77 0.0 2.0 0.00 0.00 0.00 91 1016.6
20260906112517 77 0.0 2.0 0.00 0.00 0.00 91 1016.6
20260906111519 77 0.0 1.0 0.00 0.00 0.00 91 1016.8
20260906110518 77 0.0 0.0 0.00 0.00 0.00 91 1016.9
20260906105517 77 0.0 0.0 0.00 0.00 0.00 91 1016.8
20260906104517 77 0.0 0.0 0.00 0.00 0.00 91 1016.6
20260906103517 77 0.0 3.0 0.00 0.00 0.00 91 1016.4
20260906102537 77 0.0 1.0 0.00 0.00 0.00 90 1016.3
20260906101520 77 0.0 0.0 0.00 0.00 0.00 90 1016.3
20260906100517 77 0.0 1.0 0.00 0.00 0.00 90 1016.3
20260906095517 77 0.0 2.0 0.00 0.00 0.00 90 1016.3
20260906094518 77 0.0 2.0 0.00 0.00 0.00 90 1016.3
20260906093557 77 0.0 2.0 0.00 0.00 0.00 90 1016.3
20260906092517 77 0.0 0.0 0.00 0.00 0.00 89 1016.3
20260906091557 77 0.0 0.0 0.00 0.00 0.00 89 1016.2
20260906090516 77 0.0 1.0 0.00 0.00 0.00 88 1016.1
20260906085517 78 0.0 1.0 0.00 0.00 0.00 88 1016.3
20260906084516 78 0.0 1.0 0.00 0.00 0.00 88 1016.3
20260906083516 78 0.0 1.0 0.00 0.00 0.00 87 1016.1
20260906082517 78 0.0 0.0 0.00 0.00 0.00 87 1016.0
20260906081517 78 0.0 0.0 0.00 0.00 0.00 87 1016.0
20260906080517 79 0.0 2.0 0.00 0.00 0.00 86 1016.0
20260906075516 79 135 1.0 4.0 0.00 0.00 0.00 86 1015.8
20260906074517 79 0.0 1.0 0.00 0.00 0.00 86 1016.0
20260906073517 79 0.0 1.0 0.00 0.00 0.00 86 1016.0
20260906072516 79 0.0 2.0 0.00 0.00 0.00 86 1016.0
20260906071516 79 0.0 2.0 0.00 0.00 0.00 86 1016.0
20260906070517 79 0.0 2.0 0.00 0.00 0.00 85 1016.1
20260906065516 79 0.0 1.0 0.00 0.00 0.00 85 1016.2
20260906064537 79 0.0 1.0 0.00 0.00 0.00 85 1016.3
20260906063536 80 0.0 1.0 0.00 0.00 0.00 85 1016.3
20260906062517 80 0.0 0.0 0.00 0.00 0.00 84 1016.3
20260906061536 80 113 1.0 2.0 0.00 0.00 0.00 84 1016.2
20260906060516 80 0.0 1.0 0.00 0.00 0.00 84 1016.3
20260906055515 80 0.0 1.0 0.00 0.00 0.00 84 1016.4
20260906054515 80 90 1.0 2.0 0.00 0.00 0.00 84 1016.3
20260906053515 81 0.0 2.0 0.00 0.00 0.00 83 1016.3
20260906052515 81 0.0 0.0 0.00 0.00 0.00 83 1016.4
20260906051515 81 0.0 0.0 0.00 0.00 0.00 82 1016.5
20260906050515 82 0.0 0.0 0.00 0.00 0.00 82 1016.5
20260906045536 82 0.0 1.0 0.00 0.00 0.00 81 1016.4
20260906044516 82 0.0 1.0 0.00 0.00 0.00 81 1016.3
20260906043516 83 0.0 2.0 0.00 0.00 0.00 81 1016.2
20260906042516 83 0.0 1.0 0.00 0.00 0.00 80 1016.4
20260906041516 83 0.0 2.0 0.00 0.00 0.00 79 1016.3
20260906040516 84 0.0 0.0 0.00 0.00 0.00 79 1016.2
20260906035537 84 0.0 2.0 0.00 0.00 0.00 78 1016.2
20260906034516 84 0.0 1.0 0.00 0.00 0.00 78 1016.2
20260906033516 84 0.0 2.0 0.00 0.00 0.00 78 1016.1
20260906032516 84 0.0 1.0 0.00 0.00 0.00 78 1016.0
20260906031516 85 0.0 2.0 0.00 0.00 0.00 77 1015.9
20260906030516 85 0.0 1.0 0.00 0.00 0.00 77 1015.5
20260906025515 85 0.0 2.0 0.00 0.00 0.00 77 1015.4
20260906024516 85 113 1.0 3.0 0.00 0.00 0.00 76 1015.4
20260906023536 86 113 1.0 2.0 0.00 0.00 0.00 76 1015.3
20260906022656 86 0.0 1.0 0.00 0.00 0.00 76 1015.2
20260906021516 86 113 1.0 2.0 0.00 0.00 0.00 75 1015.0
20260906020536 87 0.0 2.0 0.00 0.00 0.00 75 1014.7
20260906015516 87 90 1.0 2.0 0.00 0.00 0.00 74 1014.6
20260906014536 87 113 1.0 2.0 0.00 0.00 0.00 73 1014.5
20260906013515 88 0.0 2.0 0.00 0.00 0.00 72 1014.3
20260906012516 88 0.0 2.0 0.00 0.00 0.00 72 1014.1
20260906011516 89 0.0 2.0 0.00 0.00 0.00 71 1014.1
20260906010516 89 90 1.0 2.0 0.00 0.00 0.00 71 1014.0
20260906005515 90 113 1.0 3.0 0.00 0.00 0.00 70 1013.9
20260906004516 91 90 1.0 3.0 0.00 0.00 0.00 68 1013.8
20260906003515 93 113 1.0 3.0 0.00 0.00 0.00 65 1013.9
20260906002536 94 0.0 1.0 0.00 0.00 0.00 64 1013.9
20260906001515 95 0.0 3.0 0.00 0.00 0.00 63 1014.0
20260906000516 95 0.0 3.0 0.00 0.00 0.00 62 1014.1
20260905235536 96 113 1.0 3.0 0.00 0.00 0.00 61 1014.1
20260905234515 96 113 1.0 3.0 0.00 0.00 0.00 61 1014.1
20260905233556 96 113 1.0 6.0 0.00 0.00 0.00 61 1014.1
20260905232536 96 113 1.0 3.0 0.00 0.00 0.00 60 1014.1
20260905231536 96 90 1.0 4.0 0.00 0.00 0.00 61 1014.1
20260905230515 96 113 2.0 7.0 0.00 0.00 0.00 60 1014.1
20260905225515 96 113 1.0 3.0 0.00 0.00 0.00 60 1014.0
20260905224515 96 113 1.0 4.0 0.00 0.00 0.00 59 1013.9
20260905223535 96 113 2.0 7.0 0.00 0.00 0.00 58 1013.8
20260905222515 96 113 1.0 3.0 0.00 0.00 0.00 59 1013.6
20260905221517 96 113 2.0 7.0 0.00 0.00 0.00 59 1013.6
20260905220518 96 113 1.0 5.0 0.00 0.00 0.00 60 1013.7
20260905215517 95 113 2.0 7.0 0.00 0.00 0.00 58 1013.7
20260905214517 96 113 2.0 5.0 0.00 0.00 0.00 57 1013.8
20260905213517 96 90 2.0 5.0 0.00 0.00 0.00 57 1013.9
20260905212517 95 113 2.0 5.0 0.00 0.00 0.00 56 1014.2
20260905211517 96 113 2.0 6.0 0.00 0.00 0.00 58 1014.5
20260905210517 95 113 1.0 5.0 0.00 0.00 0.00 57 1014.6
20260905205538 94 113 2.0 7.0 0.00 0.00 0.00 57 1014.7
20260905204517 94 113 2.0 5.0 0.00 0.00 0.00 55 1014.7
20260905203517 94 113 2.0 5.0 0.00 0.00 0.00 57 1015.1
20260905202517 94 113 3.0 7.0 0.00 0.00 0.00 56 1015.4
20260905201517 93 113 2.0 8.0 0.00 0.00 0.00 56 1015.7
20260905200537 93 113 3.0 7.0 0.00 0.00 0.00 56 1015.9
20260905195517 93 113 3.0 7.0 0.00 0.00 0.00 57 1016.0
20260905194558 93 113 3.0 7.0 0.00 0.00 0.00 61 1016.0
20260905193517 93 113 3.0 8.0 0.00 0.00 0.00 59 1016.1
20260905192517 93 113 3.0 6.0 0.00 0.00 0.00 61 1016.2
20260905191517 93 113 2.0 5.0 0.00 0.00 0.00 62 1016.6
20260905190517 92 113 3.0 7.0 0.00 0.00 0.00 62 1016.7
20260905185517 92 113 2.0 6.0 0.00 0.00 0.00 64 1017.0
20260905184517 91 113 3.0 7.0 0.00 0.00 0.00 63 1017.3
20260905183517 91 113 3.0 8.0 0.00 0.00 0.00 63 1017.6
20260905182517 91 113 3.0 8.0 0.00 0.00 0.00 65 1017.5
20260905181517 91 113 3.0 8.0 0.00 0.00 0.00 65 1017.5
20260905180517 92 113 3.0 7.0 0.00 0.00 0.00 63 1017.4